User: anonymous   Login
Location: Unspecified
(0.0000°N, 0.0000°E)
Time: 20:47:18
(UTC+00:00)
Language:

VELOX C1 - Orbit

View from above orbital plane
View from above orbital plane
View from above satellite
View from above satellite

Ground track
Ground track

The orbit data is extracted from the following two-line orbital elements,

1 41166U 15077A   18141.09445473  .00000938  00000-0  16795-4 0  9991
2 41166  14.9826 238.3426 0011502 347.0273  12.9750 15.09551410134095
Epoch (UTC): 21 May 2018 02:16:00
Eccentricity: 0.0011502
inclination: 14.9826°
perigee height: 529 km
apogee height: 545 km
right ascension of ascending node: 238.3426°
argument of perigee: 347.0273°
revolutions per day: 15.09551410
mean anomaly at epoch: 12.9750°
orbit number at epoch: 13409

The dashed part of the orbit path shows where the satellite is in the earth's shadow,  

DLR